| time (UTC) | temp F | wind direction | speed knots | gust knots | rain 1hr in | rain 24hr in | rain mn in | humidity % | barometer mb |
| 20260506091531 | 67 | 61 | 1.7 | 0.0 | 0.00 | 0.00 | 0.00 | 50 | 1003.9 |
| 20260506090027 | 68 | 59 | 1.7 | 0.0 | 0.00 | 0.00 | 0.00 | 48 | 1003.8 |
| 20260506084525 | 68 | 46 | 1.7 | 0.0 | 0.00 | 0.00 | 0.00 | 47 | 1003.6 |
| 20260506083025 | 68 | 111 | 1.7 | 0.0 | 0.00 | 0.00 | 0.00 | 47 | 1003.6 |
| 20260506081531 | 67 | 88 | 0.9 | 0.0 | 0.00 | 0.00 | 0.00 | 46 | 1003.5 |
| 20260506073023 | 66 | 144 | 0.0 | 0.0 | 0.00 | 0.00 | 0.00 | 48 | 1003.2 |
| 20260506071524 | 66 | 144 | 0.0 | 0.0 | 0.00 | 0.00 | 0.00 | 49 | 1003.3 |
| 20260506061517 | 68 | 144 | 0.0 | 0.0 | 0.00 | 0.00 | 0.00 | 46 | 1003.6 |
| 20260506044502 | 71 | 144 | 0.0 | 0.0 | 0.00 | 0.00 | 0.00 | 40 | 1003.1 |
| 20260506043101 | 72 | 144 | 0.0 | 0.0 | 0.00 | 0.00 | 0.00 | 39 | 1003.1 |
| 20260506041559 | 72 | 144 | 0.0 | 0.0 | 0.00 | 0.00 | 0.00 | 38 | 1002.6 |
| 20260506040058 | 73 | 148 | 0.9 | 0.0 | 0.00 | 0.00 | 0.00 | 37 | 1002.3 |
| 20260506034600 | 73 | 151 | 1.7 | 0.0 | 0.00 | 0.00 | 0.00 | 37 | 1002.0 |
| 20260506033057 | 73 | 157 | 0.9 | 0.0 | 0.00 | 0.00 | 0.00 | 37 | 1001.7 |
| 20260506031559 | 73 | 180 | 0.0 | 0.0 | 0.00 | 0.00 | 0.00 | 36 | 1001.4 |
| 20260506030057 | 73 | 180 | 0.9 | 0.0 | 0.00 | 0.00 | 0.00 | 36 | 1001.3 |
| 20260506024601 | 74 | 257 | 0.0 | 0.0 | 0.00 | 0.00 | 0.00 | 36 | 1001.2 |
| 20260506023100 | 74 | 255 | 0.0 | 0.0 | 0.00 | 0.00 | 0.00 | 35 | 1001.1 |
| 20260506021555 | 75 | 258 | 0.0 | 0.0 | 0.00 | 0.00 | 0.00 | 34 | 1001.0 |
| 20260506020054 | 76 | 257 | 0.9 | 0.0 | 0.00 | 0.00 | 0.00 | 32 | 1000.9 |
| 20260506014554 | 77 | 242 | 0.9 | 0.0 | 0.00 | 0.00 | 0.00 | 31 | 1000.9 |
| 20260506013054 | 78 | 266 | 3.5 | 0.0 | 0.00 | 0.00 | 0.00 | 31 | 1000.6 |
| 20260506011556 | 79 | 257 | 3.5 | 0.0 | 0.00 | 0.00 | 0.00 | 30 | 1000.5 |
| 20260506010053 | 79 | 277 | 2.6 | 0.0 | 0.00 | 0.00 | 0.00 | 29 | 1000.8 |
| 20260506004553 | 79 | 280 | 3.5 | 0.0 | 0.00 | 0.00 | 0.00 | 29 | 1001.0 |
| 20260506003053 | 79 | 263 | 4.3 | 0.0 | 0.00 | 0.00 | 0.00 | 28 | 1001.1 |
| 20260506001552 | 79 | 275 | 4.3 | 0.0 | 0.00 | 0.00 | 0.00 | 28 | 1001.4 |
| 20260506000053 | 80 | 223 | 6.1 | 0.0 | 0.00 | 0.00 | 0.00 | 28 | 1001.4 |
| 20260505234554 | 80 | 259 | 4.3 | 0.0 | 0.00 | 0.00 | 0.00 | 27 | 1001.4 |
| 20260505233051 | 81 | 277 | 5.2 | 0.0 | 0.00 | 0.00 | 0.00 | 27 | 1001.4 |
| 20260505231600 | 81 | 304 | 5.2 | 0.0 | 0.00 | 0.00 | 0.00 | 26 | 1001.3 |
| 20260505230057 | 81 | 233 | 6.1 | 0.0 | 0.00 | 0.00 | 0.00 | 25 | 1001.2 |
| 20260505224552 | 83 | 243 | 5.2 | 0.0 | 0.00 | 0.00 | 0.00 | 25 | 1001.1 |
| 20260505223049 | 83 | 219 | 5.2 | 0.0 | 0.00 | 0.00 | 0.00 | 25 | 1000.9 |
| 20260505221549 | 84 | 247 | 5.2 | 0.0 | 0.00 | 0.00 | 0.00 | 24 | 1001.3 |
| 20260505220048 | 84 | 209 | 5.2 | 0.0 | 0.00 | 0.00 | 0.00 | 24 | 1000.8 |
| 20260505214548 | 84 | 220 | 4.3 | 0.0 | 0.00 | 0.00 | 0.00 | 25 | 1001.1 |
| 20260505213055 | 84 | 225 | 4.3 | 0.0 | 0.00 | 0.00 | 0.00 | 24 | 1001.0 |
| 20260505211551 | 84 | 240 | 7.0 | 0.0 | 0.00 | 0.00 | 0.00 | 22 | 1001.3 |
| 20260505210046 | 86 | 252 | 6.1 | 0.0 | 0.00 | 0.00 | 0.00 | 22 | 1001.5 |
| 20260505204545 | 86 | 211 | 3.5 | 0.0 | 0.00 | 0.00 | 0.00 | 23 | 1001.2 |
| 20260505203046 | 86 | 304 | 3.5 | 0.0 | 0.00 | 0.00 | 0.00 | 25 | 1001.5 |
| 20260505201547 | 87 | 277 | 4.3 | 0.0 | 0.00 | 0.00 | 0.00 | 26 | 1001.8 |
| 20260505200046 | 85 | 265 | 4.3 | 0.0 | 0.00 | 0.00 | 0.00 | 24 | 1001.6 |
| 20260505194546 | 84 | 228 | 3.5 | 0.0 | 0.00 | 0.00 | 0.00 | 25 | 1001.8 |
| 20260505193044 | 84 | 229 | 4.3 | 0.0 | 0.00 | 0.00 | 0.00 | 24 | 1001.9 |
| 20260505191559 | 87 | 360 | 6.1 | 0.0 | 0.00 | 0.00 | 0.00 | 22 | 1001.9 |
| 20260505190041 | 85 | 271 | 6.1 | 0.0 | 0.00 | 0.00 | 0.00 | 24 | 1001.9 |
| 20260505184540 | 86 | 232 | 5.2 | 0.0 | 0.00 | 0.00 | 0.00 | 26 | 1002.0 |
| 20260505183041 | 86 | 246 | 5.2 | 0.0 | 0.00 | 0.00 | 0.00 | 24 | 1002.3 |
| 20260505181539 | 87 | 307 | 6.1 | 0.0 | 0.00 | 0.00 | 0.00 | 22 | 1002.3 |
| 20260505180046 | 86 | 214 | 6.1 | 0.0 | 0.00 | 0.00 | 0.00 | 25 | 1002.3 |
| 20260505174539 | 86 | 289 | 5.2 | 0.0 | 0.00 | 0.00 | 0.00 | 25 | 1002.4 |
| 20260505173034 | 85 | 283 | 6.1 | 0.0 | 0.00 | 0.00 | 0.00 | 26 | 1002.5 |
| 20260505171533 | 84 | 210 | 6.1 | 0.0 | 0.00 | 0.00 | 0.00 | 25 | 1002.6 |
| 20260505170032 | 83 | 271 | 6.1 | 0.0 | 0.00 | 0.00 | 0.00 | 25 | 1002.6 |
| 20260505164528 | 83 | 302 | 6.1 | 0.0 | 0.00 | 0.00 | 0.00 | 25 | 1002.5 |
| 20260505163029 | 83 | 238 | 6.1 | 0.0 | 0.00 | 0.00 | 0.00 | 25 | 1002.6 |
| 20260505161522 | 82 | 211 | 5.2 | 0.0 | 0.00 | 0.00 | 0.00 | 26 | 1002.6 |
| 20260505153014 | 80 | 265 | 3.5 | 0.0 | 0.00 | 0.00 | 0.00 | 28 | 1002.2 |
| 20260505151510 | 79 | 265 | 4.3 | 0.0 | 0.00 | 0.00 | 0.00 | 31 | 1002.2 |
| 20260505124544 | 66 | 193 | 1.7 | 0.0 | 0.00 | 0.00 | 0.00 | 75 | 1000.9 |
| 20260505123040 | 66 | 199 | 1.7 | 0.0 | 0.00 | 0.00 | 0.00 | 75 | 1000.7 |
| 20260505121538 | 66 | 200 | 3.5 | 0.0 | 0.00 | 0.00 | 0.00 | 76 | 1000.6 |
| 20260505120034 | 66 | 194 | 3.5 | 0.0 | 0.00 | 0.00 | 0.00 | 77 | 1000.5 |
| 20260505114533 | 66 | 194 | 2.6 | 0.0 | 0.00 | 0.00 | 0.00 | 77 | 1000.4 |
| 20260505113034 | 66 | 191 | 1.7 | 0.0 | 0.00 | 0.00 | 0.00 | 76 | 1000.3 |
| 20260505111531 | 66 | 209 | 0.9 | 0.0 | 0.00 | 0.00 | 0.00 | 76 | 1000.3 |
| 20260505101547 | 67 | 205 | 3.5 | 0.0 | 0.00 | 0.00 | 0.00 | 75 | 1000.1 |
| 20260505100052 | 67 | 185 | 2.6 | 0.0 | 0.00 | 0.00 | 0.00 | 75 | 1000.1 |
| 20260505094530 | 67 | 194 | 2.6 | 0.0 | 0.00 | 0.00 | 0.00 | 74 | 999.9 |
| 20260505093025 | 68 | 200 | 2.6 | 0.0 | 0.00 | 0.00 | 0.00 | 74 | 1000.0 |